Regional Weather Roundup
Issued by NWS Little Rock, AR

Home | Current Version | Previous Version | Text Only | Print | Product List | Glossary On
Versions: 1 2 3 4 5 6 7 8 9 10 11 12 13 14 15 16 17 18 19 20 21 22 23 24 25 26 27 28 29 30 31 32 33 34 35 36 37 38 39 40 41 42 43 44 45 46 47 48 49 50
000
ASUS44 KLZK 280605
RWRLZK

WEATHER ROUNDUP FOR ARKANSAS
NATIONAL WEATHER SERVICE LITTLE ROCK AR
100 AM CDT MON JUL 28 2014

NOTE: "FAIR" INDICATES FEW OR NO CLOUDS BELOW 12,000 FEET WITH NO
SIGNIFICANT WEATHER AND/OR OBSTRUCTIONS TO VISIBILITY.

ARZ001-003-010-029-280700-
NORTHWEST ARKANSAS

CITY           SKY/WX    TMP DP  RH WIND       PRES   REMARKS
FAYETTEVILLE   CLEAR     66  62  87 CALM      30.12S
6HR MIN TEMP:  65; 6HR MAX TEMP:  86;

FORT SMITH     CLEAR     80  62  54 N5        30.05R
6HR MIN TEMP:  80; 6HR MAX TEMP:  93;

HARRISON       CLEAR     70  63  78 NW6       30.10S
6HR MIN TEMP:  70; 6HR MAX TEMP:  83;

BENTONVILLE    CLEAR     72  63  73 N5        30.13S
6HR MIN TEMP:  70; 6HR MAX TEMP:  82;

ROGERS         CLEAR     68  62  81 CALM      30.14R
6HR MIN TEMP:  68; 6HR MAX TEMP:  82;

SILOAM SPGS    CLEAR     70  61  73 N5        30.13S
6HR MIN TEMP:  70; 6HR MAX TEMP:  82;

HIGHFILL       CLEAR     70  66  87 NW3       30.12S
6HR MIN TEMP:  70; 6HR MAX TEMP:  82;

$$

ARZ004-005-016-280700-
NORTH CENTRAL ARKANSAS

CITY           SKY/WX    TMP DP  RH WIND       PRES   REMARKS
BATESVILLE     CLEAR     75  72  88 W3        30.02R
6HR MIN TEMP:  75; 6HR MAX TEMP:  88;

FLIPPIN        CLEAR     72  63  73 NW5       30.07R
6HR MIN TEMP:  70; 6HR MAX TEMP:  88;

MTN HOME       CLEAR     71  63  75 W3        30.06R
6HR MIN TEMP:  70; 6HR MAX TEMP:  84;

$$

ARZ040-041-280700-
WEST CENTRAL ARKANSAS

CITY           SKY/WX    TMP DP  RH WIND       PRES   REMARKS
MENA           CLEAR     79  73  83 CALM      30.08R
MOUNT IDA      CLEAR     77  75  93 CALM      30.03R
6HR MIN TEMP:  77; 6HR MAX TEMP:  88; 6HR PCP: TRACE;

$$

ARZ009-017-025-026-028-280700-
NORTHEAST ARKANSAS

CITY           SKY/WX    TMP DP  RH WIND       PRES   REMARKS
CORNING        FAIR      73  64  73 NW7       29.99R
JONESBORO      CLEAR     77  66  68 NW3       29.98R
6HR MIN TEMP:  77; 6HR MAX TEMP:  85;

NEWPORT        PTCLDY    77  73  87 N9        30.01R
6HR MIN TEMP:  77; 6HR MAX TEMP:  89;

WALNUT RIDGE   CLEAR     73  63  68 NW9       29.98R
6HR MIN TEMP:  73; 6HR MAX TEMP:  88;

BLYTHEVILLE    CLEAR     76  70  82 NW6       29.97R
6HR MIN TEMP:  76; 6HR MAX TEMP:  88;

$$

ARZ022-023-033-042-044-280700-
CENTRAL ARKANSAS

CITY           SKY/WX    TMP DP  RH WIND       PRES   REMARKS
LITTLE ROCK    MOCLDY    83  74  74 N3        30.00R HX  89
6HR MIN TEMP:  82; 6HR MAX TEMP:  92;

N LITTLE ROCK    N/A     82  71  68 N6        30.00R HX  86
6HR MIN TEMP:  81; 6HR MAX TEMP:  90;

JACKSONVILLE   CLOUDY    79  70  73 W2        30.01R
6HR MIN TEMP:  77; 6HR MAX TEMP:  92; 6HR PCP: TRACE;

SEARCY         PTCLDY    80  69  69 NW7       30.01R
6HR MIN TEMP:  80; 6HR MAX TEMP:  92;

HOT SPRINGS    PTCLDY    77  74  90 W3        30.02R
6HR MIN TEMP:  77; 6HR MAX TEMP:  89; 6HR PCP:  0.13;

RUSSELLVILLE   CLEAR     80  72  76 N6        30.03R
6HR MIN TEMP:  80; 6HR MAX TEMP:  91;

CLINTON        FAIR      73  73 100 CALM      30.05R FOG
$$

ARZ036-280700-
EAST ARKANSAS

CITY           SKY/WX    TMP DP  RH WIND       PRES   REMARKS
WEST MEMPHIS   PTCLDY    80  77  90 CALM      29.95S HX  87
6HR MIN TEMP:  80; 6HR MAX TEMP:  89;

$$

ARZ050-053-066-070-073-280700-
SOUTHWEST ARKANSAS

CITY           SKY/WX    TMP DP  RH WIND       PRES   REMARKS
ARKADELPHIA    FAIR      80  77  91 CALM      30.00R HX  85
6HR MIN TEMP:  80; 6HR MAX TEMP:  91;

CAMDEN         CLOUDY    82  73  74 NW3       29.99S HX  88
TEXARKANA      CLOUDY    83  75  77 SW5       30.02S HX  90
6HR MIN TEMP:  83; 6HR MAX TEMP:  94;

EL DORADO      CLOUDY    79  75  87 SW6       30.01S
6HR MIN TEMP:  79; 6HR MAX TEMP:  90;

DE QUEEN       PTCLDY    76  74  93 CALM      30.01S
6HR MIN TEMP:  76; 6HR MAX TEMP:  91; 6HR PCP: TRACE;

$$

ARZ056-057-069-280700-
SOUTHEAST ARKANSAS

CITY           SKY/WX    TMP DP  RH WIND       PRES   REMARKS
PINE BLUFF     MOCLDY    81  77  88 CALM      29.99R HX  88
6HR MIN TEMP:  80; 6HR MAX TEMP:  90; 6HR PCP: TRACE;

STUTTGART      MOCLDY    81  75  83 NW8       30.00R HX  86
6HR MIN TEMP:  81; 6HR MAX TEMP:  91;

MONTICELLO     CLOUDY    83  75  77 W7        29.98S HX  90
6HR MIN TEMP:  83; 6HR MAX TEMP:  90;


$$





USA.gov is the U.S. government's official web portal to all federal, state and local government web resources and services.